Regional Weather Roundup
Issued by NWS

Home | Current Version | Previous Version | Graphics & Text | Print | Product List | Glossary On
Versions: 1 2 3 4 5 6 7 8 9 10 11 12 13 14 15 16 17 18 19 20 21 22 23 24 25 26 27 28 29 30 31 32 33 34 35 36 37 38 39 40 41 42 43 44 45 46 47 48 49 50
727
ASUS43 KDTX 202010
RWRMI
MICHIGAN HOURLY REGIONAL WEATHER ROUNDUP
NATIONAL WEATHER SERVICE DETROIT/PONTIAC MI
300 PM EST MON FEB 20 2017

NOTE: "FAIR" INDICATES FEW OR NO CLOUDS BELOW 12,000 FEET WITH NO
SIGNIFICANT WEATHER AND/OR OBSTRUCTION TO VISIBILITY.

MIZ047>049-052>055-059>063-066>070-074>076-081>083-202100-
SOUTHEAST LOWER MICHIGAN

CITY           SKY/WX    TMP DP  RH WIND       PRES   REMARKS
ADRIAN         MOSUNNY   52  36  54 SE13      30.21F
ALMA           MOSUNNY   56  33  42 E9G16     30.18F
ANN ARBOR      SUNNY     54  34  46 E12       30.21F
BAD AXE        SUNNY     46  35  65 E7        30.26F
CARO           MOSUNNY   54  33  46 SE9       30.22F
DETROIT CITY   MOSUNNY   48  34  58 E12       30.26F
DETROIT        CLOUDY    55  35  47 SE10      30.24F
FLINT          CLOUDY    55  33  43 SE9       30.20F
GROSSE ILE     PTSUNNY   52  35  51 E7        30.23S
HILLSDALE      MOSUNNY   54  34  47 SE13      30.17F
HOWELL         CLOUDY    55  31  40 SE12      30.19F

CITY           SKY/WX    TMP DP  RH WIND       PRES   REMARKS
JACKSON        CLOUDY    56  33  42 SE15      30.18F
LAMBERTVILLE   CLOUDY    48  32  54 E10G20    30.22S
LANSING        PTSUNNY   58  34  40 SE14      30.17F
LAPEER         FAIR      53  32  45 SE10G21   30.23F
MASON          MOSUNNY   57  38  49 SE13      30.17F
MONROE         MOSUNNY   46  33  59 E16       30.22F
MT. CLEMENS    MOSUNNY   47  36  65 SE10      30.25F
PONTIAC        CLOUDY    51  32  48 E13       30.21F
PORT HOPE        N/A     35  32  88 E9        30.27F WCI  28
PORT HURON     SUNNY     50  36  57 E8        30.27S
TRI CITIES     MOSUNNY   50  40  68 NE12      30.21F
MIDLAND        FAIR      48  35  60 E9        30.21F
TROY           CLOUDY    50  31  47 E8        30.26F
SAGINAW HB     MOSUNNY   54  32  43 E8        30.21F
$$
MIZ043>046-050>051-056>058-064>065-071>073-077>080-202100-
SOUTHWEST LOWER MICHIGAN

CITY           SKY/WX    TMP DP  RH WIND       PRES   REMARKS
BATTLE CREEK   CLOUDY    61  34  36 SE14      30.14F
BENTON HARBOR  MOSUNNY   65  40  39 SE15G23   30.08F
BIG RAPIDS     CLOUDY    52  33  49 E13       30.14F
COLDWATER      CLOUDY    59  36  41 SE14      30.15F
FREMONT        FAIR      56  32  40 SE10G16   30.11F
HOLLAND        CLOUDY    64  34  32 SE15      30.09F
GRAND RAPIDS   CLOUDY    59  37  44 E16       30.12F
IONIA          FAIR      58  33  39 E10       30.16R
KALAMAZOO      CLOUDY    64  33  31 SE14      30.13F
LUDINGTON      CLOUDY    59  35  40 SE13      30.07F
MARSHALL       MOSUNNY   59  34  39 SE10G18   30.15F
MOUNT PLEASANT CLOUDY    53  33  48 SE12      30.18F
MUSKEGON       CLOUDY    59  36  42 E15       30.10F
SOUTH HAVEN    PTSUNNY   64  41  43 SE12      30.09F
$$
MIZ016>042-202100-
NORTHERN LOWER MICHIGAN

CITY           SKY/WX    TMP DP  RH WIND       PRES   REMARKS
ALPENA         CLOUDY    38  29  70 SE15      30.29S WCI  29
BEAVER ISLAND  MOSUNNY   42  32  68 E12       30.14F
BELLAIRE       MOSUNNY   50  32  50 SE10      30.15F
CADILLAC       CLOUDY    47  32  56 SE13G20   30.13F
CHARLEVOIX     MOSUNNY   49  32  52 SE8       30.16F
FRANKFORT      CLOUDY    54  33  45 SE10      30.09F
GAYLORD        CLOUDY    47  29  49 SE14G21   30.16F
GRAYLING       MOSUNNY   47  32  55 SE12      30.18F
HARBOR SPRINGS MOSUNNY   47  31  54 E10       30.16F
HOUGHTON LAKE  CLOUDY    48  30  49 SE12G21   30.18F
MANISTEE       CLOUDY    55  33  43 SE13G18   30.08F
OSCODA         PTSUNNY   38  30  72 E7        30.28S WCI  33
PELLSTON       CLOUDY    44  30  57 SE15G24   30.18F
ROGERS CITY    MOSUNNY   40  29  64 SE13      30.27F WCI  33
TRAVERSE CITY  CLOUDY    53  31  42 SE8       30.11F
$$
MIZ007>008-015-202100-
EASTERN UPPER MICHIGAN

CITY           SKY/WX    TMP DP  RH WIND       PRES   REMARKS
KINROSS        CLOUDY    37  28  70 SE17      30.21F WCI  27
MACKINAC ISLAN PTSUNNY   35  30  82 E17G33    30.19F WCI  25
NEWBERRY       CLOUDY    39  29  68 SE18G25   30.15F WCI  29
S. S. MARIE    CLOUDY    36  26  67 SE14G24   30.23F WCI  27
MUNISING         N/A     44  29  55 S16G25    30.06F
$$
MIZ004>006-011>014-085-202100-
CENTRAL UPPER MICHIGAN

CITY           SKY/WX    TMP DP  RH WIND       PRES   REMARKS
MANISTIQUE     MOSUNNY   37  32  82 E16G23    30.12F WCI  27
ESCANABA       PTSUNNY   41  33  73 E12       30.08F
MENOMINEE      MOSUNNY   44  33  65 E9        30.03F
SAWYER-GWINN   SUNNY     41  30  65 S18       30.02F
$$
MIZ001>003-009>011-084-202100-
WESTERN UPPER MICHIGAN

CITY           SKY/WX    TMP DP  RH WIND       PRES   REMARKS
IRON MOUNTAIN  MOSUNNY   44  30  57 SE12      29.98F
HOUGHTON       CLOUDY    41  29  62 E15       29.90F
COPPER HARBOR    N/A     41  31  67 S17G33    29.93F
IRONWOOD       CLOUDY    51  40  65 SE14G22   29.79F
$$

ABBREVIATIONS USED IN REMARKS
   TC - TEMPERATURE IN CELSIUS
  WCI - WIND CHILL INDEX
   HX - HEAT INDEX
  VSB - VISIBILITY





USA.gov is the U.S. government's official web portal to all federal, state and local government web resources and services.